sat.trackr.live / text

‹ back to catalog

STARLINK-35063

NORAD 65528 · 2025-200J

PAYLOAD ACTIVE UNKNOWN

§ Identity

Operator
Country
US
Launch date
2025-09-06
Launch site
AFWTR
Launch vehicle
Mass (kg)
RCS (m²)

Purposes: comms

External: N2YO · Heavens-Above · Gunter

§ Orbital elements

Epoch: 2026-09-20T21:43:11.524800Z

Period
93.91 min
Inclination
97.2857°
Eccentricity
0.0001532
Mean motion
15.33434914 rev/d
Perigee alt
464.5 km
Apogee alt
466.6 km
Semi-major
6,843.7 km
B*
3.4874e-4
RAAN
330.2944°
Arg perigee
92.0533°
Mean anomaly
268.0885°
Rev number
5,869

§ Raw data

STARLINK-350631 65528U 25200J   26263.90499450  .00011197  00000+0  34874-3 0  99912 65528  97.2857 330.2944 0001532  92.0533 268.0885 15.33434914 58696

JSON: /api/v1/satellites/65528 · /tle

For live sub-satellite position, see the globe view (requires WebGL).

§ Visibility from observer

Set your observer location to see the next 7 days of passes ≥ 10°. The values pass through the URL so the page stays shareable.

No JS? Fill the form by hand. The geolocation button needs JavaScript.